Weather History for KACT - December, 2012

Change the Weather History Date:

Monday, December 31, 2012

  Actual Average Record
Temperature  
Mean Temperature 46 °F 47 °F  
Max Temperature 50 °F 57 °F 83 °F (1951)
Min Temperature 41 °F 36 °F 14 °F (1976)
Degree Days  
Heating Degree Days 19 19  
Month to date heating degree days 415 523  
Since 1 July heating degree days 741 852  
Cooling Degree Days 0 0  
Month to date cooling degree days 29 5  
Year to date cooling degree days 3241 2797  
Moisture  
Dew Point 42 °F    
Average Humidity 77    
Maximum Humidity 100    
Minimum Humidity 53    
Precipitation  
Precipitation 0.11 in 0.08 in 1.69 in (1978)
Month to date precipitation 0.81 2.75  
Year to date precipitation 32.34 34.69  
Snow  
Snow 0.00 in 0.00 in 2.00 in (1946)
Month to date snowfall 0.0 T  
Since 1 July snowfall 0.0 0.1  
Snow Depth 0.00 in    
Sea Level Pressure  
Sea Level Pressure 30.06 in    
Wind  
Wind Speed 5 mph (ESE)    
Max Wind Speed 23 mph    
Max Gust Speed 28 mph    
Visibility 2 miles    
Events Rain    
T = Trace of Precipitation, MM = Missing Value Source: NWS Daily Summary

Daily Weather History Graph

Daily Weather History Graph

Search for Another Location

Airport or City:

Trip Planner

Search our weather history database for the weather conditions in past years. The results will help you decide how hot, cold, wet, or windy it might be!

Date:

Astronomy

Dec. 31, 2012 Rise Set
Actual Time 7:28 AM CST 5:36 PM CST
Civil Twilight 7:01 AM CST 6:02 PM CST
Nautical Twilight 6:31 AM CST 6:33 PM CST
Astronomical Twilight 6:01 AM CST 7:02 PM CST
Moon 8:54 PM CST (12/31) 9:22 AM CST (12/31)
Length of Visible Light 11h 01m
Length of Day
10h 07m
Waning Gibbous, 90% of the Moon is Illuminated
Dec 31
Waning Gibbous
Jan 4
Last Quarter
Jan 11
New
Jan 18
First Quarter
Jan 26
Full

Hourly Weather History & Observations

Time (CST) Temp. Windchill Dew Point Humidity Pressure Visibility Wind Dir Wind Speed Gust Speed Precip Events Conditions
12:09 AM 42.8 °F 40.1 °F 26.6 °F 53% 30.21 in 10.0 mi ESE 4.6 mph - N/A   Overcast
12:51 AM 43.0 °F 40.3 °F 28.0 °F 56% 30.19 in 10.0 mi SE 4.6 mph - N/A   Overcast
1:51 AM 43.0 °F 38.8 °F 30.9 °F 62% 30.18 in 10.0 mi SE 6.9 mph - N/A   Overcast
2:47 AM 42.8 °F 38.0 °F 35.6 °F 76% 30.18 in 5.0 mi South 8.1 mph - 0.00 in Rain Light Rain
2:51 AM 42.1 °F 36.6 °F 37.0 °F 82% 30.18 in 4.0 mi South 9.2 mph - 0.00 in Rain Light Rain
3:44 AM 42.8 °F 40.1 °F 39.2 °F 87% 30.16 in 2.0 mi SE 4.6 mph - 0.00 in   Overcast
3:51 AM 41.0 °F 39.0 °F 39.0 °F 93% 30.16 in 2.0 mi ESE 3.5 mph - 0.00 in Rain Light Rain
3:58 AM 41.0 °F - 39.2 °F 93% 30.15 in 1.5 mi Calm Calm - 0.00 in Rain Light Rain
4:05 AM 41.0 °F - 39.2 °F 93% 30.15 in 2.0 mi Calm Calm - 0.00 in Rain Light Rain
4:12 AM 41.0 °F - 39.2 °F 93% 30.16 in 1.5 mi Calm Calm - 0.00 in Rain Light Rain
4:26 AM 41.0 °F 39.0 °F 39.2 °F 93% 30.15 in 1.2 mi SE 3.5 mph - 0.01 in Rain Light Rain
4:51 AM 41.0 °F 39.0 °F 39.2 °F 93% 30.12 in 1.0 mi East 3.5 mph - N/A Rain Light Rain
5:12 AM 41.0 °F 38.0 °F 39.2 °F 93% 30.12 in 1.5 mi ESE 4.6 mph - 0.01 in Rain Light Rain
5:51 AM 41.0 °F 35.8 °F 39.9 °F 96% 30.11 in 1.2 mi SE 8.1 mph - 0.01 in   Overcast
6:02 AM 41.0 °F 35.8 °F 39.2 °F 93% 30.10 in 1.2 mi SE 8.1 mph - N/A   Overcast
6:51 AM 42.1 °F 37.7 °F 39.9 °F 92% 30.10 in 1.2 mi SE 6.9 mph - 0.01 in Rain Light Rain
7:10 AM 42.8 °F 37.5 °F 39.2 °F 87% 30.08 in 1.5 mi SE 9.2 mph - 0.00 in Rain Light Rain
7:21 AM 42.8 °F 38.0 °F 39.2 °F 87% 30.08 in 1.2 mi SE 8.1 mph - 0.00 in Rain Light Rain
7:44 AM 42.8 °F 39.3 °F 41.0 °F 93% 30.08 in 2.0 mi SE 5.8 mph - 0.00 in   Overcast
7:51 AM 42.1 °F 38.4 °F 41.0 °F 96% 30.08 in 2.0 mi SE 5.8 mph - 0.00 in   Overcast
8:04 AM 42.8 °F 39.3 °F 41.0 °F 93% 30.07 in 1.5 mi SE 5.8 mph - 0.00 in Rain Light Rain
8:31 AM 42.8 °F 37.5 °F 41.0 °F 93% 30.06 in 0.8 mi SE 9.2 mph - 0.01 in Rain Light Rain
8:51 AM 43.0 °F 36.8 °F 42.1 °F 97% 30.04 in 0.8 mi SE 11.5 mph - 0.01 in Rain Light Rain
9:02 AM 42.8 °F 36.6 °F 42.8 °F 100% 30.03 in 1.0 mi SE 11.5 mph - N/A   Overcast
9:51 AM 45.0 °F 39.7 °F 43.0 °F 93% 30.01 in 1.5 mi SE 10.4 mph 18.4 mph N/A   Overcast
10:51 AM 46.9 °F - 45.0 °F 93% 30.06 in 1.5 mi WSW 8.1 mph - N/A   Overcast
11:51 AM 46.9 °F - 46.0 °F 97% 30.04 in 1.2 mi WNW 5.8 mph - N/A   Overcast
12:51 PM 46.9 °F - 46.0 °F 97% 30.01 in 1.0 mi Calm Calm - 0.00 in Rain Light Rain
1:21 PM 46.4 °F - 44.6 °F 93% 30.00 in 0.8 mi Calm Calm - 0.01 in Rain Light Rain
1:51 PM 48.0 °F - 46.0 °F 93% 29.99 in 0.8 mi North 4.6 mph - 0.02 in   Overcast
2:51 PM 48.0 °F - 46.0 °F 93% 29.99 in 1.0 mi North 3.5 mph - 0.03 in Rain Light Rain
3:51 PM 48.9 °F - 46.9 °F 93% 29.98 in 3.0 mi East 3.5 mph - 0.01 in   Overcast
4:26 PM 48.2 °F - 46.4 °F 93% 29.98 in 6.0 mi NE 3.5 mph - N/A   Overcast
4:48 PM 48.2 °F - 46.4 °F 93% 29.97 in 4.0 mi ESE 4.6 mph - N/A   Overcast
4:51 PM 48.9 °F - 46.9 °F 93% 29.97 in 4.0 mi Calm Calm - N/A   Overcast
5:11 PM 48.2 °F - 46.4 °F 93% 29.98 in 2.5 mi Calm Calm - N/A   Overcast
5:51 PM 48.9 °F - 46.9 °F 93% 29.97 in 3.0 mi NE 3.5 mph - N/A   Overcast
6:51 PM 48.9 °F - 48.0 °F 97% 29.97 in 3.0 mi Calm Calm - N/A   Overcast
7:47 PM 48.2 °F - 48.2 °F 100% 29.99 in 2.5 mi Calm Calm - N/A   Overcast
7:51 PM 50.0 °F - 48.0 °F 93% 29.99 in 2.5 mi Calm Calm - N/A   Overcast
8:51 PM 48.9 °F - 48.0 °F 97% 30.00 in 2.5 mi Calm Calm - N/A   Overcast
9:38 PM 48.2 °F - 48.2 °F 100% 30.00 in 1.8 mi NNW 6.9 mph - N/A   Overcast
9:51 PM 48.9 °F - 48.0 °F 97% 30.00 in 1.5 mi North 4.6 mph - N/A   Overcast
10:51 PM 48.9 °F - 48.0 °F 97% 30.02 in 1.5 mi North 5.8 mph - N/A   Overcast
11:31 PM 48.2 °F - 46.4 °F 93% 30.02 in 2.0 mi North 11.5 mph - N/A   Overcast
11:51 PM 48.0 °F - 46.9 °F 96% 30.03 in 3.0 mi NNE 9.2 mph - N/A   Overcast